START_TIME,STEP,MOV.,P11,t_acc.,P23,t_acc.,P27,t_acc.,A4,t_acc.
1979-07-24 03:00:22.610 ,1,0,7.,4.8,0.,4.8,0.,4.8,0.,4.8
1979-07-24 03:00:27.410 ,1,0,5.,4.8,0.,4.8,0.,4.8,0.,4.8
1979-07-24 03:00:32.210 ,1,0,6.,4.8,0.,4.8,0.,4.8,1.,4.8
1979-07-24 03:00:37.010 ,1,0,3.,4.8,0.,4.8,0.,4.8,0.,4.8
1979-07-24 03:00:41.810 ,1,0,5.,4.8,0.,4.8,0.,4.8,0.,4.8
1979-07-24 03:00:46.610 ,2,0,4.,4.8,0.,4.8,0.,4.8,0.,4.8
1979-07-24 03:00:51.410 ,2,0,3.,4.8,0.,4.8,0.,4.8,0.,4.8
1979-07-24 03:00:56.210 ,2,0,7.,4.8,0.,4.8,0.,4.8,0.,4.8
1979-07-24 03:01:01.010 ,2,0,6.,4.8,0.,4.8,0.,4.8,1.,4.8
1979-07-24 03:01:05.810 ,2,0,4.,4.8,0.,4.8,0.,4.8,0.,4.8
1979-07-24 03:01:10.610 ,2,0,4.,4.8,0.,4.8,1.,4.8,0.,4.8
1979-07-24 03:01:15.410 ,2,0,4.,4.8,0.,4.8,0.,4.8,0.,4.8
1979-07-24 03:01:20.210 ,2,0,2.,4.8,0.,4.8,0.,4.8,1.,4.8
1979-07-24 03:01:25.010 ,2,0,6.,4.8,0.,4.8,0.,4.8,1.,4.8
1979-07-24 03:01:29.810 ,2,0,8.,4.8,0.,4.8,0.,4.8,0.,4.8
1979-07-24 03:01:34.610 ,3,0,5.,4.8,0.,4.8,0.,4.8,0.,4.8
1979-07-24 03:01:39.410 ,3,0,7.,4.8,0.,4.8,0.,4.8,0.,4.8
1979-07-24 03:01:44.210 ,3,0,4.,4.8,0.,4.8,0.,4.8,0.,4.8
1979-07-24 03:01:49.010 ,3,0,2.,4.8,0.,4.8,0.,4.8,0.,4.8
1979-07-24 03:01:53.810 ,3,0,3.,4.8,0.,4.8,0.,4.8,0.,4.8
1979-07-24 03:01:58.610 ,3,0,8.,4.8,0.,4.8,0.,4.8,0.,4.8
1979-07-24 03:02:03.410 ,3,0,6.,4.8,0.,4.8,0.,4.8,0.,4.8
1979-07-24 03:02:08.210 ,3,0,5.,4.8,0.,4.8,0.,4.8,0.,4.8
1979-07-24 03:02:13.010 ,3,0,1.,4.8,0.,4.8,0.,4.8,0.,4.8
1979-07-24 03:02:17.810 ,3,0,3.,4.8,0.,4.8,0.,4.8,0.,4.8
1979-07-24 03:02:22.610 ,4,0,6.,4.8,0.,4.8,1.,4.8,0.,4.8
1979-07-24 03:02:27.410 ,4,0,4.,4.8,0.,4.8,1.,4.8,0.,4.8
1979-07-24 03:02:32.210 ,4,0,5.,4.8,0.,4.8,0.,4.8,0.,4.8
1979-07-24 03:02:37.010 ,4,0,9.,4.8,0.,4.8,0.,4.8,0.,4.8
1979-07-24 03:02:41.810 ,4,0,3.,4.8,0.,4.8,0.,4.8,0.,4.8
1979-07-24 03:02:46.610 ,4,0,5.,4.8,1.,4.8,0.,4.8,0.,4.8
1979-07-24 03:02:51.410 ,4,0,13.,4.8,0.,4.8,0.,4.8,0.,4.8
1979-07-24 03:02:56.210 ,4,0,4.,4.8,0.,4.8,0.,4.8,0.,4.8
1979-07-24 03:03:01.010 ,4,0,7.,4.8,0.,4.8,0.,4.8,0.,4.8
1979-07-24 03:03:05.810 ,4,0,5.,4.8,0.,4.8,0.,4.8,0.,4.8
1979-07-24 03:03:10.610 ,5,0,5.,4.8,0.,4.8,0.,4.8,0.,4.8
1979-07-24 03:03:15.410 ,5,0,6.,4.8,0.,4.8,0.,4.8,0.,4.8
1979-07-24 03:03:20.210 ,5,0,5.,4.8,0.,4.8,0.,4.8,0.,4.8
1979-07-24 03:03:25.010 ,5,0,6.,4.8,0.,4.8,1.,4.8,0.,4.8
1979-07-24 03:03:29.810 ,5,0,11.,4.8,0.,4.8,0.,4.8,0.,4.8
1979-07-24 03:03:34.610 ,5,0,7.,4.8,1.,4.8,0.,4.8,0.,4.8
1979-07-24 03:03:39.410 ,5,0,0.,4.8,0.,4.8,0.,4.8,0.,4.8
1979-07-24 03:03:44.210 ,5,0,4.,4.8,0.,4.8,0.,4.8,2.,4.8
1979-07-24 03:03:49.010 ,5,0,4.,4.8,0.,4.8,2.,4.8,0.,4.8
1979-07-24 03:03:53.810 ,5,0,5.,4.8,0.,4.8,0.,4.8,0.,4.8
1979-07-24 03:03:58.610 ,6,0,4.,4.8,0.,4.8,0.,4.8,0.,4.8
1979-07-24 03:04:03.410 ,6,0,2.,4.8,0.,4.8,0.,4.8,1.,4.8
1979-07-24 03:04:08.210 ,6,0,4.,4.8,0.,4.8,1.,4.8,1.,4.8
1979-07-24 03:04:13.010 ,6,0,6.,4.8,0.,4.8,0.,4.8,0.,4.8
1979-07-24 03:04:17.810 ,6,0,6.,4.8,0.,4.8,0.,4.8,0.,4.8
1979-07-24 03:04:22.610 ,6,0,2.,4.8,1.,4.8,0.,4.8,0.,4.8
1979-07-24 03:04:27.410 ,6,0,7.,4.8,0.,4.8,0.,4.8,0.,4.8
1979-07-24 03:04:32.210 ,6,0,4.,4.8,0.,4.8,0.,4.8,0.,4.8
1979-07-24 03:04:37.010 ,6,0,3.,4.8,1.,4.8,0.,4.8,0.,4.8
1979-07-24 03:04:41.810 ,6,0,6.,4.8,0.,4.8,0.,4.8,0.,4.8
1979-07-24 03:04:46.610 ,7,0,6.,4.8,0.,4.8,0.,4.8,0.,4.8
1979-07-24 03:04:51.410 ,7,0,8.,4.8,0.,4.8,0.,4.8,1.,4.8
1979-07-24 03:04:56.210 ,7,0,2.,4.8,0.,4.8,0.,4.8,0.,4.8
1979-07-24 03:05:01.010 ,7,0,0.,4.8,0.,4.8,0.,4.8,0.,4.8
1979-07-24 03:05:05.810 ,7,0,2.,4.8,0.,4.8,1.,4.8,0.,4.8
1979-07-24 03:05:10.610 ,7,0,3.,4.8,0.,4.8,0.,4.8,0.,4.8
1979-07-24 03:05:15.410 ,7,0,3.,4.8,0.,4.8,0.,4.8,0.,4.8
1979-07-24 03:05:20.210 ,7,0,1.,4.8,1.,4.8,0.,4.8,0.,4.8
1979-07-24 03:05:25.010 ,7,0,3.,4.8,0.,4.8,0.,4.8,0.,4.8
1979-07-24 03:05:29.810 ,7,0,4.,4.8,0.,4.8,0.,4.8,0.,4.8
1979-07-24 03:05:34.610 ,7,0,2.,4.8,1.,4.8,0.,4.8,0.,4.8
1979-07-24 03:05:39.410 ,7,0,5.,4.8,0.,4.8,0.,4.8,0.,4.8
1979-07-24 03:05:44.210 ,7,0,6.,4.8,0.,4.8,0.,4.8,0.,4.8
1979-07-24 03:05:49.010 ,7,0,5.,4.8,0.,4.8,1.,4.8,0.,4.8
1979-07-24 03:05:53.810 ,7,0,1.,4.8,0.,4.8,0.,4.8,0.,4.8
1979-07-24 03:05:58.610 ,7,0,2.,4.8,0.,4.8,0.,4.8,0.,4.8
1979-07-24 03:06:03.410 ,7,0,0.,4.8,0.,4.8,0.,4.8,0.,4.8
1979-07-24 03:06:08.210 ,7,0,1.,4.8,0.,4.8,0.,4.8,0.,4.8
1979-07-24 03:06:13.010 ,7,0,1.,4.8,0.,4.8,1.,4.8,0.,4.8
1979-07-24 03:06:17.810 ,7,0,5.,4.8,0.,4.8,0.,4.8,0.,4.8
1979-07-24 03:06:22.610 ,6,0,7.,4.8,0.,4.8,0.,4.8,0.,4.8
1979-07-24 03:06:27.410 ,6,0,3.,4.8,0.,4.8,2.,4.8,0.,4.8
1979-07-24 03:06:32.210 ,6,0,3.,4.8,0.,4.8,0.,4.8,0.,4.8
1979-07-24 03:06:37.010 ,6,0,5.,4.8,0.,4.8,0.,4.8,1.,4.8
1979-07-24 03:06:41.810 ,6,0,3.,4.8,1.,4.8,0.,4.8,0.,4.8
1979-07-24 03:06:46.610 ,6,0,6.,4.8,0.,4.8,0.,4.8,1.,4.8
1979-07-24 03:06:51.410 ,6,0,4.,4.8,0.,4.8,0.,4.8,1.,4.8
1979-07-24 03:06:56.210 ,6,0,6.,4.8,0.,4.8,0.,4.8,2.,4.8
1979-07-24 03:07:01.010 ,6,0,4.,4.8,0.,4.8,0.,4.8,0.,4.8
1979-07-24 03:07:05.810 ,6,0,5.,4.8,0.,4.8,0.,4.8,1.,4.8
1979-07-24 03:07:10.610 ,5,0,8.,4.8,0.,4.8,0.,4.8,0.,4.8
1979-07-24 03:07:15.410 ,5,0,4.,4.8,0.,4.8,0.,4.8,0.,4.8
1979-07-24 03:07:20.210 ,5,0,10.,4.8,0.,4.8,0.,4.8,0.,4.8
1979-07-24 03:07:25.010 ,5,0,5.,4.8,1.,4.8,0.,4.8,0.,4.8
1979-07-24 03:07:29.810 ,5,0,8.,4.8,0.,4.8,0.,4.8,0.,4.8
1979-07-24 03:07:34.610 ,5,0,4.,4.8,0.,4.8,0.,4.8,0.,4.8
1979-07-24 03:07:39.410 ,5,0,5.,4.8,0.,4.8,0.,4.8,0.,4.8
1979-07-24 03:07:44.210 ,5,0,7.,4.8,1.,4.8,0.,4.8,0.,4.8
1979-07-24 03:07:49.010 ,5,0,6.,4.8,0.,4.8,0.,4.8,0.,4.8
1979-07-24 03:07:53.810 ,5,0,7.,4.8,0.,4.8,0.,4.8,0.,4.8
1979-07-24 03:07:58.610 ,4,0,3.,4.8,0.,4.8,0.,4.8,0.,4.8
1979-07-24 03:08:03.410 ,4,0,5.,4.8,0.,4.8,1.,4.8,0.,4.8
1979-07-24 03:08:08.210 ,4,0,6.,4.8,0.,4.8,0.,4.8,0.,4.8
1979-07-24 03:08:13.010 ,4,0,5.,4.8,0.,4.8,0.,4.8,0.,4.8
1979-07-24 03:08:17.810 ,4,0,7.,4.8,0.,4.8,0.,4.8,0.,4.8
1979-07-24 03:08:22.610 ,4,0,7.,4.8,0.,4.8,0.,4.8,0.,4.8
1979-07-24 03:08:27.410 ,4,0,5.,4.8,0.,4.8,0.,4.8,0.,4.8
1979-07-24 03:08:32.210 ,4,0,6.,4.8,1.,4.8,0.,4.8,0.,4.8
1979-07-24 03:08:37.010 ,4,0,5.,4.8,0.,4.8,1.,4.8,0.,4.8
1979-07-24 03:08:41.810 ,4,0,9.,4.8,0.,4.8,0.,4.8,0.,4.8
1979-07-24 03:08:46.610 ,3,0,4.,4.8,0.,4.8,0.,4.8,0.,4.8
1979-07-24 03:08:51.410 ,3,0,5.,4.8,0.,4.8,0.,4.8,0.,4.8
1979-07-24 03:08:56.210 ,3,0,5.,4.8,0.,4.8,0.,4.8,0.,4.8
1979-07-24 03:09:01.010 ,3,0,3.,4.8,0.,4.8,0.,4.8,0.,4.8
1979-07-24 03:09:05.810 ,3,0,3.,4.8,0.,4.8,0.,4.8,0.,4.8
1979-07-24 03:09:10.610 ,3,0,5.,4.8,0.,4.8,0.,4.8,0.,4.8
1979-07-24 03:09:15.410 ,3,0,10.,4.8,0.,4.8,0.,4.8,0.,4.8
1979-07-24 03:09:20.210 ,3,0,4.,4.8,0.,4.8,0.,4.8,0.,4.8
1979-07-24 03:09:25.010 ,3,0,7.,4.8,0.,4.8,0.,4.8,0.,4.8
1979-07-24 03:09:29.810 ,3,0,3.,4.8,0.,4.8,0.,4.8,0.,4.8
1979-07-24 03:09:34.610 ,2,0,3.,4.8,0.,4.8,0.,4.8,0.,4.8
1979-07-24 03:09:39.410 ,2,0,6.,4.8,0.,4.8,0.,4.8,0.,4.8
1979-07-24 03:09:44.210 ,2,0,1.,4.8,0.,4.8,0.,4.8,0.,4.8
1979-07-24 03:09:49.010 ,2,0,5.,4.8,0.,4.8,0.,4.8,1.,4.8
1979-07-24 03:09:53.810 ,2,0,3.,4.8,0.,4.8,0.,4.8,0.,4.8
1979-07-24 03:09:58.610 ,2,0,4.,4.8,0.,4.8,0.,4.8,0.,4.8
1979-07-24 03:10:03.410 ,2,0,7.,4.8,0.,4.8,0.,4.8,0.,4.8
1979-07-24 03:10:08.210 ,2,0,6.,4.8,0.,4.8,0.,4.8,0.,4.8
1979-07-24 03:10:13.010 ,2,0,6.,4.8,0.,4.8,0.,4.8,0.,4.8
1979-07-24 03:10:17.810 ,2,0,2.,4.8,0.,4.8,2.,4.8,0.,4.8
1979-07-24 03:10:22.610 ,1,0,5.,4.8,0.,4.8,0.,4.8,1.,4.8
1979-07-24 03:10:27.410 ,1,0,4.,4.8,0.,4.8,0.,4.8,0.,4.8
1979-07-24 03:10:32.210 ,1,0,5.,4.8,0.,4.8,1.,4.8,0.,4.8
1979-07-24 03:10:37.010 ,1,0,7.,4.8,0.,4.8,0.,4.8,1.,4.8
1979-07-24 03:10:41.810 ,1,0,5.,4.8,0.,4.8,0.,4.8,0.,4.8
1979-07-24 03:10:46.610 ,1,0,4.,4.8,0.,4.8,0.,4.8,0.,4.8
1979-07-24 03:10:51.410 ,1,0,6.,4.8,0.,4.8,0.,4.8,0.,4.8
1979-07-24 03:10:56.210 ,1,0,5.,4.8,0.,4.8,1.,4.8,0.,4.8
1979-07-24 03:11:01.010 ,1,0,4.,4.8,0.,4.8,2.,4.8,0.,4.8
1979-07-24 03:11:05.810 ,1,0,6.,4.8,0.,4.8,0.,4.8,0.,4.8
1979-07-24 03:11:10.610 ,0,0,4.,4.8,0.,4.8,0.,4.8,0.,4.8
1979-07-24 03:11:15.410 ,0,0,4.,4.8,0.,4.8,0.,4.8,0.,4.8
1979-07-24 03:11:20.210 ,0,0,4.,4.8,0.,4.8,0.,4.8,0.,4.8
1979-07-24 03:11:25.010 ,0,0,5.,4.8,0.,4.8,0.,4.8,0.,4.8
1979-07-24 03:11:29.810 ,0,0,4.,4.8,0.,4.8,0.,4.8,0.,4.8
1979-07-24 03:11:34.610 ,0,0,8.,4.8,0.,4.8,0.,4.8,0.,4.8
1979-07-24 03:11:39.410 ,0,0,3.,4.8,0.,4.8,0.,4.8,0.,4.8
1979-07-24 03:11:44.210 ,0,0,6.,4.8,0.,4.8,0.,4.8,0.,4.8
1979-07-24 03:11:49.010 ,0,0,4.,4.8,0.,4.8,0.,4.8,0.,4.8
1979-07-24 03:11:53.810 ,0,0,4.,4.8,0.,4.8,0.,4.8,0.,4.8
1979-07-24 03:11:58.610 ,0,0,3.,4.8,0.,4.8,0.,4.8,0.,4.8
1979-07-24 03:12:03.410 ,0,0,3.,4.8,0.,4.8,0.,4.8,0.,4.8
1979-07-24 03:12:08.210 ,0,0,4.,4.8,0.,4.8,0.,4.8,0.,4.8
1979-07-24 03:12:13.010 ,0,0,4.,4.8,0.,4.8,0.,4.8,0.,4.8
1979-07-24 03:12:17.810 ,0,0,3.,4.8,0.,4.8,0.,4.8,0.,4.8
1979-07-24 03:12:22.610 ,0,0,2.,4.8,0.,4.8,1.,4.8,1.,4.8
1979-07-24 03:12:27.410 ,0,0,4.,4.8,0.,4.8,0.,4.8,0.,4.8
1979-07-24 03:12:32.210 ,0,0,2.,4.8,0.,4.8,0.,4.8,0.,4.8
1979-07-24 03:12:37.010 ,0,0,6.,4.8,0.,4.8,0.,4.8,1.,4.8
1979-07-24 03:12:41.810 ,0,0,10.,4.8,0.,4.8,0.,4.8,0.,4.8
1979-07-24 03:12:46.610 ,1,0,8.,4.8,0.,4.8,0.,4.8,0.,4.8
1979-07-24 03:12:51.410 ,1,0,3.,4.8,0.,4.8,0.,4.8,0.,4.8
1979-07-24 03:12:56.210 ,1,0,6.,4.8,0.,4.8,0.,4.8,0.,4.8
1979-07-24 03:13:01.010 ,1,0,5.,4.8,0.,4.8,0.,4.8,0.,4.8
1979-07-24 03:13:05.810 ,1,0,2.,4.8,0.,4.8,0.,4.8,1.,4.8
1979-07-24 03:13:10.610 ,1,0,8.,4.8,0.,4.8,1.,4.8,0.,4.8
1979-07-24 03:13:15.410 ,1,0,1.,4.8,0.,4.8,0.,4.8,0.,4.8
1979-07-24 03:13:20.210 ,1,0,9.,4.8,0.,4.8,0.,4.8,0.,4.8
1979-07-24 03:13:25.010 ,1,0,4.,4.8,0.,4.8,0.,4.8,0.,4.8
1979-07-24 03:13:29.810 ,1,0,8.,4.8,0.,4.8,1.,4.8,0.,4.8
1979-07-24 03:13:34.610 ,2,0,6.,4.8,0.,4.8,0.,4.8,0.,4.8
1979-07-24 03:13:39.410 ,2,0,4.,4.8,0.,4.8,0.,4.8,1.,4.8
1979-07-24 03:13:44.210 ,2,0,7.,4.8,1.,4.8,0.,4.8,0.,4.8
1979-07-24 03:13:49.010 ,2,0,4.,4.8,1.,4.8,0.,4.8,0.,4.8
1979-07-24 03:13:53.810 ,2,0,6.,4.8,0.,4.8,0.,4.8,0.,4.8
1979-07-24 03:13:58.610 ,2,0,7.,4.8,0.,4.8,0.,4.8,0.,4.8
1979-07-24 03:14:03.410 ,2,0,8.,4.8,0.,4.8,0.,4.8,0.,4.8
1979-07-24 03:14:08.210 ,2,0,10.,4.8,0.,4.8,0.,4.8,0.,4.8
1979-07-24 03:14:13.010 ,2,0,5.,4.8,0.,4.8,0.,4.8,0.,4.8
1979-07-24 03:14:17.810 ,2,0,7.,4.8,0.,4.8,0.,4.8,0.,4.8
1979-07-24 03:14:22.610 ,3,0,3.,4.8,0.,4.8,0.,4.8,0.,4.8
1979-07-24 03:14:27.410 ,3,0,3.,4.8,0.,4.8,0.,4.8,0.,4.8
1979-07-24 03:14:32.210 ,3,0,6.,4.8,0.,4.8,1.,4.8,1.,4.8
1979-07-24 03:14:37.010 ,3,0,1.,4.8,0.,4.8,0.,4.8,0.,4.8
1979-07-24 03:14:41.810 ,3,0,7.,4.8,1.,4.8,0.,4.8,0.,4.8
1979-07-24 03:14:46.610 ,3,0,3.,4.8,0.,4.8,0.,4.8,1.,4.8
1979-07-24 03:14:51.410 ,3,0,5.,4.8,1.,4.8,1.,4.8,0.,4.8
1979-07-24 03:14:56.210 ,3,0,5.,4.8,0.,4.8,0.,4.8,1.,4.8
1979-07-24 03:15:01.010 ,3,0,7.,4.8,0.,4.8,0.,4.8,1.,4.8
1979-07-24 03:15:05.810 ,3,0,5.,4.8,0.,4.8,0.,4.8,0.,4.8
1979-07-24 03:15:10.610 ,4,0,6.,4.8,0.,4.8,0.,4.8,0.,4.8
1979-07-24 03:15:15.410 ,4,0,2.,4.8,0.,4.8,0.,4.8,0.,4.8
1979-07-24 03:15:20.210 ,4,0,10.,4.8,0.,4.8,0.,4.8,0.,4.8
1979-07-24 03:15:25.010 ,4,0,6.,4.8,1.,4.8,0.,4.8,0.,4.8
1979-07-24 03:15:29.810 ,4,0,5.,4.8,0.,4.8,0.,4.8,0.,4.8
1979-07-24 03:15:34.610 ,4,0,2.,4.8,0.,4.8,0.,4.8,0.,4.8
1979-07-24 03:15:39.410 ,4,0,2.,4.8,0.,4.8,0.,4.8,0.,4.8
1979-07-24 03:15:44.210 ,4,0,5.,4.8,0.,4.8,0.,4.8,0.,4.8
1979-07-24 03:15:49.010 ,4,0,4.,4.8,0.,4.8,0.,4.8,0.,4.8
1979-07-24 03:15:53.810 ,4,0,2.,4.8,0.,4.8,0.,4.8,0.,4.8
1979-07-24 03:15:58.610 ,5,0,4.,4.8,0.,4.8,0.,4.8,0.,4.8
1979-07-24 03:16:03.410 ,5,0,1.,4.8,1.,4.8,0.,4.8,0.,4.8
1979-07-24 03:16:08.210 ,5,0,5.,4.8,0.,4.8,0.,4.8,1.,4.8
1979-07-24 03:16:13.010 ,5,0,3.,4.8,0.,4.8,1.,4.8,1.,4.8
1979-07-24 03:16:17.810 ,5,0,8.,4.8,1.,4.8,0.,4.8,0.,4.8
1979-07-24 03:16:22.610 ,5,0,3.,4.8,0.,4.8,0.,4.8,0.,4.8
1979-07-24 03:16:27.410 ,5,0,4.,4.8,0.,4.8,1.,4.8,0.,4.8
1979-07-24 03:16:32.210 ,5,0,8.,4.8,0.,4.8,0.,4.8,0.,4.8
1979-07-24 03:16:37.010 ,5,0,5.,4.8,1.,4.8,2.,4.8,0.,4.8
1979-07-24 03:16:41.810 ,5,0,8.,4.8,0.,4.8,0.,4.8,0.,4.8
1979-07-24 03:16:46.610 ,6,0,6.,4.8,0.,4.8,1.,4.8,0.,4.8
1979-07-24 03:16:51.410 ,6,0,5.,4.8,0.,4.8,0.,4.8,0.,4.8
1979-07-24 03:16:56.210 ,6,0,2.,4.8,0.,4.8,0.,4.8,0.,4.8
1979-07-24 03:17:01.010 ,6,0,4.,4.8,0.,4.8,0.,4.8,1.,4.8
1979-07-24 03:17:05.810 ,6,0,4.,4.8,0.,4.8,0.,4.8,0.,4.8
1979-07-24 03:17:10.610 ,6,0,3.,4.8,0.,4.8,1.,4.8,0.,4.8
1979-07-24 03:17:15.410 ,6,0,3.,4.8,0.,4.8,0.,4.8,0.,4.8
1979-07-24 03:17:20.210 ,6,0,9.,4.8,0.,4.8,0.,4.8,1.,4.8
1979-07-24 03:17:25.010 ,6,0,2.,4.8,0.,4.8,1.,4.8,0.,4.8
1979-07-24 03:17:29.810 ,6,0,7.,4.8,0.,4.8,0.,4.8,0.,4.8
1979-07-24 03:17:34.610 ,7,0,4.,4.8,0.,4.8,0.,4.8,1.,4.8
1979-07-24 03:17:39.410 ,7,0,6.,4.8,0.,4.8,0.,4.8,0.,4.8
1979-07-24 03:17:44.210 ,7,0,3.,4.8,0.,4.8,0.,4.8,0.,4.8
1979-07-24 03:17:49.010 ,7,0,3.,4.8,0.,4.8,0.,4.8,0.,4.8
1979-07-24 03:17:53.810 ,7,0,4.,4.8,0.,4.8,0.,4.8,0.,4.8
1979-07-24 03:17:58.610 ,7,0,2.,4.8,0.,4.8,0.,4.8,0.,4.8
1979-07-24 03:18:03.410 ,7,0,3.,4.8,0.,4.8,0.,4.8,0.,4.8
1979-07-24 03:18:08.210 ,7,0,5.,4.8,0.,4.8,0.,4.8,0.,4.8
1979-07-24 03:18:13.010 ,7,0,2.,4.8,0.,4.8,0.,4.8,0.,4.8
1979-07-24 03:18:17.810 ,7,0,3.,4.8,0.,4.8,0.,4.8,0.,4.8
1979-07-24 03:18:22.610 ,7,0,4.,4.8,0.,4.8,0.,4.8,0.,4.8
1979-07-24 03:18:27.410 ,7,0,1.,4.8,0.,4.8,0.,4.8,0.,4.8
1979-07-24 03:18:32.210 ,7,0,5.,4.8,0.,4.8,0.,4.8,0.,4.8
1979-07-24 03:18:37.010 ,7,0,3.,4.8,0.,4.8,0.,4.8,0.,4.8
1979-07-24 03:18:41.810 ,7,0,6.,4.8,0.,4.8,0.,4.8,0.,4.8
1979-07-24 03:18:46.610 ,7,0,5.,4.8,0.,4.8,0.,4.8,0.,4.8
1979-07-24 03:18:51.410 ,7,0,3.,4.8,0.,4.8,0.,4.8,0.,4.8
1979-07-24 03:18:56.210 ,7,0,2.,4.8,0.,4.8,0.,4.8,0.,4.8
1979-07-24 03:19:01.010 ,7,0,2.,4.8,1.,4.8,0.,4.8,0.,4.8
1979-07-24 03:19:05.810 ,7,0,1.,4.8,0.,4.8,0.,4.8,0.,4.8
1979-07-24 03:19:10.610 ,6,0,3.,4.8,0.,4.8,0.,4.8,0.,4.8
1979-07-24 03:19:15.410 ,6,0,2.,4.8,0.,4.8,0.,4.8,0.,4.8
1979-07-24 03:19:20.210 ,6,0,2.,4.8,0.,4.8,0.,4.8,0.,4.8
1979-07-24 03:19:25.010 ,6,0,2.,4.8,1.,4.8,0.,4.8,0.,4.8
1979-07-24 03:19:29.810 ,6,0,6.,4.8,0.,4.8,0.,4.8,0.,4.8
1979-07-24 03:19:34.610 ,6,0,6.,4.8,0.,4.8,0.,4.8,0.,4.8
1979-07-24 03:19:39.410 ,6,0,2.,4.8,0.,4.8,0.,4.8,0.,4.8
1979-07-24 03:19:44.210 ,6,0,6.,4.8,0.,4.8,0.,4.8,0.,4.8
1979-07-24 03:19:49.010 ,6,0,6.,4.8,0.,4.8,0.,4.8,0.,4.8
1979-07-24 03:19:53.810 ,6,0,8.,4.8,0.,4.8,0.,4.8,0.,4.8
1979-07-24 03:19:58.610 ,5,0,5.,4.8,0.,4.8,0.,4.8,0.,4.8
1979-07-24 03:20:03.410 ,5,0,5.,4.8,1.,4.8,0.,4.8,0.,4.8
1979-07-24 03:20:08.210 ,5,0,4.,4.8,0.,4.8,0.,4.8,0.,4.8
1979-07-24 03:20:13.010 ,5,0,3.,4.8,0.,4.8,0.,4.8,0.,4.8
1979-07-24 03:20:17.810 ,5,0,4.,4.8,0.,4.8,0.,4.8,0.,4.8
1979-07-24 03:20:22.610 ,5,0,3.,4.8,0.,4.8,0.,4.8,0.,4.8
1979-07-24 03:20:27.410 ,5,0,2.,4.8,1.,4.8,0.,4.8,1.,4.8
1979-07-24 03:20:32.210 ,5,0,10.,4.8,0.,4.8,0.,4.8,0.,4.8
1979-07-24 03:20:37.010 ,5,0,5.,4.8,0.,4.8,0.,4.8,0.,4.8
1979-07-24 03:20:41.810 ,5,0,3.,4.8,0.,4.8,0.,4.8,0.,4.8
1979-07-24 03:20:46.610 ,4,0,7.,4.8,0.,4.8,0.,4.8,0.,4.8
1979-07-24 03:20:51.410 ,4,0,5.,4.8,0.,4.8,0.,4.8,0.,4.8
1979-07-24 03:20:56.210 ,4,0,4.,4.8,0.,4.8,0.,4.8,0.,4.8
1979-07-24 03:21:01.010 ,4,0,4.,4.8,0.,4.8,0.,4.8,0.,4.8
1979-07-24 03:21:05.810 ,4,0,2.,4.8,1.,4.8,0.,4.8,0.,4.8
1979-07-24 03:21:10.610 ,4,0,2.,4.8,0.,4.8,0.,4.8,0.,4.8
1979-07-24 03:21:15.410 ,4,0,5.,4.8,0.,4.8,0.,4.8,0.,4.8
1979-07-24 03:21:20.210 ,4,0,7.,4.8,0.,4.8,0.,4.8,0.,4.8
1979-07-24 03:21:25.010 ,4,0,4.,4.8,0.,4.8,0.,4.8,0.,4.8
1979-07-24 03:21:29.810 ,4,0,4.,4.8,0.,4.8,0.,4.8,0.,4.8
1979-07-24 03:21:34.610 ,3,0,4.,4.8,0.,4.8,0.,4.8,0.,4.8
1979-07-24 03:21:39.410 ,3,0,7.,4.8,0.,4.8,0.,4.8,0.,4.8
1979-07-24 03:21:44.210 ,3,0,3.,4.8,0.,4.8,0.,4.8,0.,4.8
1979-07-24 03:21:49.010 ,3,0,1.,4.8,0.,4.8,0.,4.8,0.,4.8
1979-07-24 03:21:53.810 ,3,0,3.,4.8,0.,4.8,0.,4.8,0.,4.8
1979-07-24 03:21:58.610 ,3,0,5.,4.8,0.,4.8,1.,4.8,0.,4.8
1979-07-24 03:22:03.410 ,3,0,6.,4.8,0.,4.8,0.,4.8,0.,4.8
1979-07-24 03:22:08.210 ,3,0,7.,4.8,0.,4.8,0.,4.8,1.,4.8
1979-07-24 03:22:13.010 ,3,0,10.,4.8,0.,4.8,0.,4.8,0.,4.8
1979-07-24 03:22:17.810 ,3,0,5.,4.8,0.,4.8,0.,4.8,0.,4.8
1979-07-24 03:22:22.610 ,2,0,9.,4.8,0.,4.8,0.,4.8,0.,4.8
1979-07-24 03:22:27.410 ,2,0,4.,4.8,0.,4.8,0.,4.8,0.,4.8
1979-07-24 03:22:32.210 ,2,0,8.,4.8,0.,4.8,0.,4.8,0.,4.8
1979-07-24 03:22:37.010 ,2,0,4.,4.8,0.,4.8,0.,4.8,0.,4.8
1979-07-24 03:22:41.810 ,2,0,3.,4.8,0.,4.8,0.,4.8,0.,4.8
1979-07-24 03:22:46.610 ,2,0,11.,4.8,0.,4.8,0.,4.8,0.,4.8
1979-07-24 03:22:51.410 ,2,0,6.,4.8,0.,4.8,0.,4.8,0.,4.8
1979-07-24 03:22:56.210 ,2,0,6.,4.8,0.,4.8,0.,4.8,0.,4.8
1979-07-24 03:23:01.010 ,2,0,5.,4.8,0.,4.8,0.,4.8,0.,4.8
1979-07-24 03:23:05.810 ,2,0,5.,4.8,0.,4.8,0.,4.8,0.,4.8
1979-07-24 03:23:10.610 ,1,0,7.,4.8,0.,4.8,0.,4.8,0.,4.8
1979-07-24 03:23:15.410 ,1,0,6.,4.8,0.,4.8,0.,4.8,0.,4.8
1979-07-24 03:23:20.210 ,1,0,2.,4.8,0.,4.8,0.,4.8,0.,4.8
1979-07-24 03:23:25.010 ,1,0,5.,4.8,0.,4.8,0.,4.8,0.,4.8
1979-07-24 03:23:29.810 ,1,0,9.,4.8,0.,4.8,0.,4.8,0.,4.8
1979-07-24 03:23:34.610 ,1,0,0.,4.8,0.,4.8,0.,4.8,0.,4.8
1979-07-24 03:23:39.410 ,1,0,5.,4.8,0.,4.8,0.,4.8,0.,4.8
1979-07-24 03:23:44.210 ,1,0,7.,4.8,0.,4.8,0.,4.8,0.,4.8
1979-07-24 03:23:49.010 ,1,0,8.,4.8,0.,4.8,0.,4.8,0.,4.8
1979-07-24 03:23:53.810 ,1,0,6.,4.8,0.,4.8,0.,4.8,0.,4.8
1979-07-24 03:23:58.610 ,0,0,7.,4.8,0.,4.8,0.,4.8,0.,4.8
1979-07-24 03:24:03.410 ,0,0,5.,4.8,0.,4.8,0.,4.8,0.,4.8
1979-07-24 03:24:08.210 ,0,0,4.,4.8,0.,4.8,0.,4.8,0.,4.8
1979-07-24 03:24:13.010 ,0,0,2.,4.8,0.,4.8,0.,4.8,0.,4.8
1979-07-24 03:24:17.810 ,0,0,3.,4.8,0.,4.8,0.,4.8,0.,4.8
1979-07-24 03:24:22.610 ,0,0,5.,4.8,0.,4.8,0.,4.8,1.,4.8
1979-07-24 03:24:27.410 ,0,0,9.,4.8,0.,4.8,0.,4.8,2.,4.8
1979-07-24 03:24:32.210 ,0,0,6.,4.8,0.,4.8,0.,4.8,0.,4.8
1979-07-24 03:24:37.010 ,0,0,2.,4.8,0.,4.8,0.,4.8,0.,4.8
1979-07-24 03:24:41.810 ,0,0,5.,4.8,0.,4.8,0.,4.8,2.,4.8
1979-07-24 03:24:46.610 ,0,0,6.,4.8,0.,4.8,0.,4.8,0.,4.8
1979-07-24 03:24:51.410 ,0,0,4.,4.8,0.,4.8,0.,4.8,0.,4.8
1979-07-24 03:24:56.210 ,0,0,5.,4.8,0.,4.8,0.,4.8,0.,4.8
1979-07-24 03:25:01.010 ,0,0,2.,4.8,0.,4.8,0.,4.8,0.,4.8
1979-07-24 03:25:05.810 ,0,0,6.,4.8,0.,4.8,0.,4.8,0.,4.8
1979-07-24 03:25:10.610 ,0,0,4.,4.8,0.,4.8,0.,4.8,0.,4.8
1979-07-24 03:25:15.410 ,0,0,4.,4.8,0.,4.8,0.,4.8,0.,4.8
1979-07-24 03:25:20.210 ,0,0,2.,4.8,0.,4.8,1.,4.8,1.,4.8
1979-07-24 03:25:25.010 ,0,0,4.,4.8,0.,4.8,0.,4.8,0.,4.8
1979-07-24 03:25:29.810 ,0,0,7.,4.8,0.,4.8,0.,4.8,0.,4.8
1979-07-24 03:25:34.610 ,1,0,2.,4.8,0.,4.8,0.,4.8,0.,4.8
1979-07-24 03:25:39.410 ,1,0,3.,4.8,0.,4.8,0.,4.8,1.,4.8
1979-07-24 03:25:44.210 ,1,0,5.,4.8,0.,4.8,0.,4.8,0.,4.8
1979-07-24 03:25:49.010 ,1,0,4.,4.8,0.,4.8,0.,4.8,0.,4.8
1979-07-24 03:25:53.810 ,1,0,7.,4.8,0.,4.8,0.,4.8,0.,4.8
1979-07-24 03:25:58.610 ,1,0,5.,4.8,0.,4.8,0.,4.8,0.,4.8
1979-07-24 03:26:03.410 ,1,0,4.,4.8,0.,4.8,0.,4.8,0.,4.8
1979-07-24 03:26:08.210 ,1,0,7.,4.8,0.,4.8,1.,4.8,0.,4.8
1979-07-24 03:26:13.010 ,1,0,2.,4.8,0.,4.8,0.,4.8,0.,4.8
1979-07-24 03:26:17.810 ,1,0,4.,4.8,0.,4.8,0.,4.8,0.,4.8
1979-07-24 03:26:22.610 ,2,0,6.,4.8,0.,4.8,0.,4.8,0.,4.8
1979-07-24 03:26:27.410 ,2,0,5.,4.8,0.,4.8,0.,4.8,0.,4.8
1979-07-24 03:26:32.210 ,2,0,6.,4.8,0.,4.8,0.,4.8,1.,4.8
1979-07-24 03:26:37.010 ,2,0,4.,4.8,0.,4.8,0.,4.8,0.,4.8
1979-07-24 03:26:41.810 ,2,0,6.,4.8,0.,4.8,0.,4.8,0.,4.8
1979-07-24 03:26:46.610 ,2,0,4.,4.8,0.,4.8,0.,4.8,0.,4.8
1979-07-24 03:26:51.410 ,2,0,5.,4.8,0.,4.8,0.,4.8,0.,4.8
1979-07-24 03:26:56.210 ,2,0,4.,4.8,0.,4.8,0.,4.8,0.,4.8
1979-07-24 03:27:01.010 ,2,0,4.,4.8,0.,4.8,0.,4.8,1.,4.8
1979-07-24 03:27:05.810 ,2,0,5.,4.8,0.,4.8,0.,4.8,0.,4.8
1979-07-24 03:27:10.610 ,3,0,4.,4.8,0.,4.8,0.,4.8,0.,4.8
1979-07-24 03:27:15.410 ,3,0,4.,4.8,0.,4.8,0.,4.8,0.,4.8
1979-07-24 03:27:20.210 ,3,0,4.,4.8,0.,4.8,0.,4.8,0.,4.8
1979-07-24 03:27:25.010 ,3,0,6.,4.8,0.,4.8,0.,4.8,0.,4.8
1979-07-24 03:27:29.810 ,3,0,3.,4.8,0.,4.8,0.,4.8,0.,4.8
1979-07-24 03:27:34.610 ,3,0,4.,4.8,0.,4.8,0.,4.8,0.,4.8
1979-07-24 03:27:39.410 ,3,0,4.,4.8,0.,4.8,0.,4.8,0.,4.8
1979-07-24 03:27:44.210 ,3,0,4.,4.8,0.,4.8,0.,4.8,0.,4.8
1979-07-24 03:27:49.010 ,3,0,1.,4.8,0.,4.8,0.,4.8,0.,4.8
1979-07-24 03:27:53.810 ,3,0,5.,4.8,0.,4.8,0.,4.8,0.,4.8
1979-07-24 03:27:58.610 ,4,0,5.,4.8,0.,4.8,0.,4.8,0.,4.8
1979-07-24 03:28:03.410 ,4,0,2.,4.8,0.,4.8,0.,4.8,0.,4.8
1979-07-24 03:28:08.210 ,4,0,3.,4.8,1.,4.8,0.,4.8,0.,4.8
1979-07-24 03:28:13.010 ,4,0,6.,4.8,0.,4.8,0.,4.8,0.,4.8
1979-07-24 03:28:17.810 ,4,0,6.,4.8,0.,4.8,0.,4.8,0.,4.8
1979-07-24 03:28:22.610 ,4,0,2.,4.8,0.,4.8,0.,4.8,0.,4.8
1979-07-24 03:28:27.410 ,4,0,8.,4.8,0.,4.8,0.,4.8,0.,4.8
1979-07-24 03:28:32.210 ,4,0,4.,4.8,0.,4.8,1.,4.8,0.,4.8
1979-07-24 03:28:37.010 ,4,0,5.,4.8,0.,4.8,0.,4.8,0.,4.8
1979-07-24 03:28:41.810 ,4,0,5.,4.8,0.,4.8,0.,4.8,0.,4.8
1979-07-24 03:28:46.610 ,5,0,3.,4.8,0.,4.8,0.,4.8,0.,4.8
1979-07-24 03:28:51.410 ,5,0,4.,4.8,0.,4.8,0.,4.8,0.,4.8
1979-07-24 03:28:56.210 ,5,0,9.,4.8,0.,4.8,1.,4.8,0.,4.8
1979-07-24 03:29:01.010 ,5,0,1.,4.8,0.,4.8,0.,4.8,0.,4.8
1979-07-24 03:29:05.810 ,5,0,5.,4.8,0.,4.8,0.,4.8,0.,4.8
1979-07-24 03:29:10.610 ,5,0,4.,4.8,0.,4.8,0.,4.8,0.,4.8
1979-07-24 03:29:15.410 ,5,0,7.,4.8,0.,4.8,0.,4.8,0.,4.8
1979-07-24 03:29:20.210 ,5,0,11.,4.8,0.,4.8,0.,4.8,0.,4.8
1979-07-24 03:29:25.010 ,5,0,4.,4.8,0.,4.8,1.,4.8,0.,4.8
1979-07-24 03:29:29.810 ,5,0,0.,4.8,0.,4.8,0.,4.8,1.,4.8
1979-07-24 03:29:34.610 ,6,0,4.,4.8,0.,4.8,0.,4.8,0.,4.8
1979-07-24 03:29:39.410 ,6,0,8.,4.8,0.,4.8,0.,4.8,0.,4.8
1979-07-24 03:29:44.210 ,6,0,3.,4.8,0.,4.8,0.,4.8,0.,4.8
1979-07-24 03:29:49.010 ,6,0,2.,4.8,0.,4.8,1.,4.8,0.,4.8
1979-07-24 03:29:53.810 ,6,0,3.,4.8,1.,4.8,0.,4.8,1.,4.8
1979-07-24 03:29:58.610 ,6,0,1.,4.8,0.,4.8,0.,4.8,1.,4.8
1979-07-24 03:30:03.410 ,6,0,5.,4.8,0.,4.8,0.,4.8,0.,4.8
1979-07-24 03:30:08.210 ,6,0,5.,4.8,1.,4.8,0.,4.8,1.,4.8
1979-07-24 03:30:13.010 ,6,0,6.,4.8,0.,4.8,0.,4.8,0.,4.8
1979-07-24 03:30:17.810 ,6,0,8.,4.8,0.,4.8,0.,4.8,0.,4.8
1979-07-24 03:30:22.610 ,7,0,2.,4.8,1.,4.8,0.,4.8,0.,4.8
1979-07-24 03:30:27.410 ,7,0,7.,4.8,0.,4.8,0.,4.8,0.,4.8
1979-07-24 03:30:32.210 ,7,0,1.,4.8,0.,4.8,1.,4.8,0.,4.8
1979-07-24 03:30:37.010 ,7,0,4.,4.8,0.,4.8,0.,4.8,0.,4.8
1979-07-24 03:30:41.810 ,7,0,4.,4.8,0.,4.8,1.,4.8,0.,4.8
1979-07-24 03:30:46.610 ,7,0,2.,4.8,0.,4.8,0.,4.8,0.,4.8
1979-07-24 03:30:51.410 ,7,0,2.,4.8,0.,4.8,0.,4.8,0.,4.8
1979-07-24 03:30:56.210 ,7,0,2.,4.8,0.,4.8,0.,4.8,0.,4.8
1979-07-24 03:31:01.010 ,7,0,3.,4.8,0.,4.8,0.,4.8,0.,4.8
1979-07-24 03:31:05.810 ,7,0,0.,4.8,0.,4.8,0.,4.8,0.,4.8
1979-07-24 03:31:10.610 ,3,1,4.,4.8,0.,4.8,0.,4.8,0.,4.8
1979-07-24 03:31:15.410 ,3,1,5.,4.8,0.,4.8,1.,4.8,0.,4.8
1979-07-24 03:31:20.210 ,3,1,2.,4.8,0.,4.8,0.,4.8,0.,4.8
1979-07-24 03:31:25.010 ,3,1,4.,4.8,0.,4.8,0.,4.8,0.,4.8
1979-07-24 03:31:29.810 ,3,1,6.,4.8,0.,4.8,0.,4.8,0.,4.8
1979-07-24 03:31:34.610 ,0,1,5.,4.8,0.,4.8,1.,4.8,0.,4.8
1979-07-24 03:31:39.410 ,0,1,4.,4.8,0.,4.8,1.,4.8,0.,4.8
1979-07-24 03:31:44.210 ,0,1,4.,4.8,0.,4.8,0.,4.8,0.,4.8
1979-07-24 03:31:49.010 ,0,1,5.,4.8,0.,4.8,0.,4.8,0.,4.8
1979-07-24 03:31:53.810 ,0,1,5.,4.8,0.,4.8,0.,4.8,0.,4.8
1979-07-24 03:31:58.610 ,4,1,9.,4.8,0.,4.8,0.,4.8,0.,4.8
1979-07-24 03:32:03.410 ,4,1,3.,4.8,0.,4.8,1.,4.8,0.,4.8
1979-07-24 03:32:08.210 ,4,1,1.,4.8,0.,4.8,0.,4.8,0.,4.8
1979-07-24 03:32:13.010 ,4,1,5.,4.8,0.,4.8,0.,4.8,0.,4.8
1979-07-24 03:32:17.810 ,4,1,3.,4.8,0.,4.8,0.,4.8,0.,4.8
1979-07-24 03:32:22.610 ,7,1,5.,4.8,0.,4.8,0.,4.8,0.,4.8
1979-07-24 03:32:27.410 ,7,1,10.,4.8,0.,4.8,0.,4.8,0.,4.8
1979-07-24 03:32:32.210 ,7,1,5.,4.8,0.,4.8,1.,4.8,0.,4.8
1979-07-24 03:32:37.010 ,7,1,5.,4.8,0.,4.8,0.,4.8,0.,4.8
1979-07-24 03:32:41.810 ,7,1,4.,4.8,0.,4.8,0.,4.8,0.,4.8
1979-07-24 03:32:46.610 ,3,1,7.,4.8,0.,4.8,1.,4.8,0.,4.8
1979-07-24 03:32:51.410 ,3,1,1.,4.8,0.,4.8,0.,4.8,0.,4.8
1979-07-24 03:32:56.210 ,3,1,5.,4.8,0.,4.8,0.,4.8,0.,4.8
1979-07-24 03:33:01.010 ,3,1,2.,4.8,2.,4.8,0.,4.8,0.,4.8
1979-07-24 03:33:05.810 ,3,1,2.,4.8,0.,4.8,0.,4.8,0.,4.8
1979-07-24 03:33:10.610 ,0,1,3.,4.8,0.,4.8,0.,4.8,0.,4.8
1979-07-24 03:33:15.410 ,0,1,7.,4.8,0.,4.8,1.,4.8,1.,4.8